Location: Cabo di Oristano
(39.8500°N, 8.4333°E)
Time: 17:42:09
(UTC+00:00)

Okean 1 Rocket - Pass Details

Date: 31 January 2023
Orbit: 604 x 634 km, 82.5° (Epoch: 31 March)

Event Time Altitude Azimuth Distance (km) Brightness Sun altitude
Rises 05:26:03 0° 203° (SSW) 2,884 6.4 -13.6°
Reaches altitude 10° 05:28:21 10° 210° (SSW) 1,987 5.5 -13.2°
Maximum altitude 05:32:32 42° 282° (WNW) 903 3.4 -12.4°
Drops below altitude 10° 05:36:47 10° 353° (N) 2,018 5.5 -11.6°
Sets 05:39:09 0° 1° (N) 2,934 6.4 -11.2°
